Location: Clarks Summit,Pa.
(41.5000°N, 75.6000°W)
Time: 03:43:12
(UTC-05:00)

Envisat - Pass Details

Date: 03 December 2021
Orbit: 764 x 766 km, 98.2° (Epoch: 18 January)

Event Time Altitude Azimuth Distance (km) Brightness Sun altitude
Rises 04:30:44 0° 20° (NNE) 3,241 6.4 -29.4°
Reaches altitude 10° 04:33:10 10° 27° (NNE) 2,310 5.7 -29.0°
Maximum altitude 04:37:59 41° 98° (E) 1,093 4.2 -28.1°
Drops below altitude 10° 04:42:45 10° 168° (SSE) 2,293 5.6 -27.2°
Sets 04:45:09 0° 176° (S) 3,214 6.4 -26.8°
